Loutra Aidhipsou, Greece

12:46 PM EET on February 22, 2017 (GMT +0200)
Almiros Air Base

Weather History for LGBL - October, 2012

Change the Weather History Date:

Sunday, October 7, 2012

  Actual Average Record
Temperature  
Mean Temperature 70 °F -  
Max Temperature 82 °F - - ()
Min Temperature 57 °F - - ()
Cooling Degree Days 4    
Growing Degree Days 20 (Base 50)    
Moisture  
Dew Point 51 °F    
Average Humidity 51    
Maximum Humidity 73    
Minimum Humidity 30    
Precipitation  
Precipitation 0.00 in - - ()
Sea Level Pressure  
Sea Level Pressure 29.97 in    
Wind  
Wind Speed 5 mph ()    
Max Wind Speed 10 mph    
Max Gust Speed -    
T = Trace of Precipitation, MM = Missing Value Source: Averaged Metar Reports

Daily Weather History Graph

Daily Weather History Graph

Search for Another Location

Airport or City:

Trip Planner

Search our weather history database for the weather conditions in past years. The results will help you decide how hot, cold, wet, or windy it might be!

Date:

Astronomy

Oct. 07, 2012 Rise Set
Actual Time 7:30 AM EEST 7:01 PM EEST
Civil Twilight 7:03 AM EEST 7:28 PM EEST
Nautical Twilight 6:32 AM EEST 7:59 PM EEST
Astronomical Twilight 6:01 AM EEST 8:30 PM EEST
Moon 11:57 PM EEST (10/7) 1:53 PM EEST (10/7)
Length of Visible Light 12h 24m
Length of Day
11h 30m
Waning Gibbous, 59% of the Moon is Illuminated
Oct 7
Waning Gibbous
Oct 8
Last Quarter
Oct 15
New
Oct 22
First Quarter
Oct 29
Full

Hourly Weather History & Observations

Time (EEST) Temp. Dew Point Humidity Pressure Visibility Wind Dir Wind Speed Gust Speed Precip Events Conditions
12:50 AM 60.8 °F 48.2 °F 63% 30.06 in - West 4.6 mph - N/A   Clear
1:50 AM 60.8 °F 48.2 °F 63% 30.06 in - Calm Calm - N/A   Clear
2:50 AM 60.8 °F 48.2 °F 63% 30.06 in - Calm Calm - N/A   Clear
3:50 AM 60.8 °F 46.4 °F 59% 30.06 in - West 4.6 mph - N/A   Clear
4:50 AM 59.0 °F 46.4 °F 63% 30.04 in - West 4.6 mph - N/A   Clear
5:50 AM 57.2 °F 46.4 °F 67% 30.04 in - SW 8.1 mph - N/A   Clear
6:20 AM 57.2 °F 46.4 °F 67% 30.04 in - SW 8.1 mph - N/A   Clear
6:50 AM 59.0 °F 46.4 °F 63% 30.04 in - West 8.1 mph - N/A   Clear
7:20 AM 57.2 °F 46.4 °F 67% 30.04 in - West 5.8 mph - N/A   Clear
7:50 AM 57.2 °F 46.4 °F 67% 30.04 in - West 5.8 mph - N/A   Clear
8:20 AM 59.0 °F 46.4 °F 63% 30.04 in - West 5.8 mph - N/A   Clear
8:50 AM 60.8 °F 48.2 °F 63% 30.04 in - West 5.8 mph - N/A   Clear
9:20 AM 66.2 °F 50.0 °F 56% 30.04 in - West 4.6 mph - N/A   Clear
9:50 AM 73.4 °F 50.0 °F 44% 30.04 in - West 4.6 mph - N/A   Clear
10:20 AM 73.4 °F 50.0 °F 44% 30.04 in - Calm Calm - N/A   Clear
10:50 AM 77.0 °F 48.2 °F 36% 30.04 in - Calm Calm - N/A   Clear
11:20 AM 78.8 °F 48.2 °F 34% 30.04 in - Calm Calm - N/A   Clear
11:50 AM 78.8 °F 51.8 °F 39% 30.01 in - East 5.8 mph - N/A   Clear
12:20 PM 78.8 °F 50.0 °F 36% 30.01 in - East 6.9 mph - N/A   Clear
12:50 PM 80.6 °F 50.0 °F 34% 30.01 in - East 6.9 mph - N/A   Clear
1:20 PM 80.6 °F 51.8 °F 37% 30.06 in - East 8.1 mph - N/A   Clear
1:50 PM 80.6 °F 51.8 °F 37% 29.98 in - East 10.4 mph - N/A   Clear
2:20 PM 80.6 °F 50.0 °F 34% 29.95 in - East 10.4 mph - N/A   Clear
2:50 PM 80.6 °F 48.2 °F 32% 29.95 in - East 10.4 mph - N/A   Clear
3:20 PM 82.4 °F 48.2 °F 30% 29.92 in - East 10.4 mph - N/A   Clear
3:50 PM 80.6 °F 50.0 °F 34% 29.92 in - East 10.4 mph - N/A   Clear
4:20 PM 78.8 °F 53.6 °F 42% 29.89 in - East 10.4 mph - N/A   Clear
4:50 PM 78.8 °F 55.4 °F 44% 29.89 in - ENE 9.2 mph - N/A   Clear
5:20 PM 78.8 °F 57.2 °F 47% 29.89 in - ENE 8.1 mph - N/A   Clear
5:50 PM 78.8 °F 59.0 °F 51% 29.86 in - ENE 6.9 mph - N/A   Clear
6:20 PM 77.0 °F 57.2 °F 50% 29.86 in - ENE 8.1 mph - N/A   Clear
6:50 PM 75.2 °F 59.0 °F 57% 29.86 in - ENE 8.1 mph - N/A   Clear
7:50 PM 75.2 °F 59.0 °F 57% 29.86 in - East 8.1 mph - N/A   Clear
8:20 PM 71.6 °F 53.6 °F 53% 29.86 in - SE 4.6 mph - N/A   Clear
8:50 PM 69.8 °F 57.2 °F 64% 29.86 in - Calm Calm - N/A   Clear
9:50 PM 68.0 °F 59.0 °F 73% 29.86 in - Calm Calm - N/A   Clear
10:50 PM 68.0 °F 53.6 °F 60% 29.86 in - NW 4.6 mph - N/A   Clear
11:50 PM 64.4 °F 51.8 °F 64% 29.86 in - Calm Calm - N/A   Clear